Orlando, FL

4:56 PM EDT on September 22, 2019 (GMT -0400)
Executive

Weather History for KORL - August, 2019

Change the Weather History Date:

Sunday, August 25, 2019

  Actual Average Record
Temperature  
Mean Temperature 86 °F -  
Max Temperature 93 °F 88 °F 96 °F (2015)
Min Temperature 78 °F 72 °F 73 °F (1996)
Cooling Degree Days 20    
Growing Degree Days 36 (Base 50)    
Moisture  
Dew Point 74 °F    
Average Humidity 73    
Maximum Humidity 93    
Minimum Humidity 50    
Precipitation  
Precipitation 0.00 in - - ()
Sea Level Pressure  
Sea Level Pressure 29.96 in    
Wind  
Wind Speed 6 mph (NNE)    
Max Wind Speed 13 mph    
Max Gust Speed 18 mph    
Visibility 10 miles    
Events      
Averages and records for this station are not official NWS values.
T = Trace of Precipitation, MM = Missing Value Source: NWS Daily Summary

Daily Weather History Graph

Daily Weather History Graph

Search for Another Location

Airport or City:

Astronomy

Aug. 25, 2019 Rise Set
Actual Time 6:59 AM EDT 7:54 PM EDT
Civil Twilight 6:35 AM EDT 8:18 PM EDT
Nautical Twilight 6:06 AM EDT 8:47 PM EDT
Astronomical Twilight 5:37 AM EDT 9:16 PM EDT
Moon 1:47 AM EDT (8/25) 3:57 PM EDT (8/25)
Length of Visible Light 13h 43m
Length of Day
12h 54m
Waning Crescent, 29% of the Moon is Illuminated
Aug 25
Waning Crescent
Aug 30
New
Sep 5
First Quarter
Sep 14
Full
Sep 21
Last Quarter

Hourly Weather History & Observations

Time (EDT) Temp. Heat Index Dew Point Humidity Pressure Visibility Wind Dir Wind Speed Gust Speed Precip Events Conditions
12:53 AM 81.0 °F 86.2 °F 73.9 °F 79% 29.98 in 10.0 mi North 4.6 mph - N/A   Clear
1:53 AM 81.0 °F 86.7 °F 75.0 °F 82% 29.96 in 10.0 mi North 4.6 mph - N/A   Clear
2:53 AM 80.1 °F 85.1 °F 75.0 °F 85% 29.93 in 10.0 mi NNW 5.8 mph - N/A   Clear
3:53 AM 79.0 °F - 75.0 °F 88% 29.92 in 10.0 mi NNW 4.6 mph - N/A   Clear
4:53 AM 79.0 °F - 75.0 °F 88% 29.92 in 10.0 mi North 4.6 mph - N/A   Clear
5:53 AM 79.0 °F - 75.9 °F 90% 29.92 in 10.0 mi North 3.5 mph - N/A   Clear
6:53 AM 78.1 °F - 75.9 °F 93% 29.94 in 10.0 mi NW 4.6 mph - N/A   Clear
7:53 AM 79.0 °F - 75.9 °F 90% 29.96 in 10.0 mi NNW 3.5 mph - N/A   Clear
8:53 AM 82.0 °F 89.4 °F 75.9 °F 82% 29.97 in 10.0 mi North 8.1 mph - N/A   Mostly Cloudy
9:11 AM 82.0 °F 89.4 °F 75.9 °F 82% 29.97 in 10.0 mi NNW 9.2 mph - N/A   Mostly Cloudy
9:53 AM 84.0 °F 91.9 °F 75.0 °F 74% 29.99 in 10.0 mi North 8.1 mph - N/A   Mostly Cloudy
10:16 AM 84.9 °F 94.1 °F 75.9 °F 74% 29.98 in 10.0 mi NE 9.2 mph - N/A   Scattered Clouds
10:53 AM 87.1 °F 95.4 °F 73.9 °F 65% 29.99 in 10.0 mi NNE 6.9 mph - N/A   Mostly Cloudy
11:05 AM 88.0 °F 95.6 °F 73.0 °F 61% 29.99 in 10.0 mi North 6.9 mph - N/A   Overcast
11:25 AM 87.1 °F 94.5 °F 73.0 °F 63% 29.98 in 10.0 mi NE 8.1 mph - N/A   Mostly Cloudy
11:53 AM 89.1 °F 96.0 °F 72.0 °F 57% 29.99 in 10.0 mi ENE 10.4 mph - N/A   Scattered Clouds
12:53 PM 91.0 °F 97.6 °F 71.1 °F 52% 29.97 in 10.0 mi NE 9.2 mph - N/A   Partly Cloudy
1:53 PM 93.0 °F 100.7 °F 72.0 °F 50% 29.97 in 10.0 mi Variable 4.6 mph - N/A   Scattered Clouds
2:53 PM 91.9 °F 100.7 °F 73.0 °F 54% 29.94 in 10.0 mi East 10.4 mph 16.1 mph N/A   Partly Cloudy
4:53 PM 91.0 °F 99.3 °F 73.0 °F 55% 29.93 in 10.0 mi NE 10.4 mph - N/A   Clear
5:53 PM 90.0 °F 97.9 °F 73.0 °F 57% 29.91 in 10.0 mi ENE 10.4 mph - N/A   Partly Cloudy
6:53 PM 88.0 °F 95.6 °F 73.0 °F 61% 29.92 in 10.0 mi ENE 12.7 mph - N/A   Scattered Clouds
7:53 PM 84.0 °F 91.2 °F 73.9 °F 72% 29.94 in 10.0 mi NE 6.9 mph - N/A   Clear
8:53 PM 82.0 °F 87.9 °F 73.9 °F 76% 29.96 in 10.0 mi NE 10.4 mph 18.4 mph N/A   Clear
9:53 PM 81.0 °F 86.7 °F 75.0 °F 82% 29.99 in 10.0 mi NE 8.1 mph - N/A   Clear
10:53 PM 81.0 °F 86.7 °F 75.0 °F 82% 30.00 in 10.0 mi NE 8.1 mph - N/A   Partly Cloudy
11:53 PM 81.0 °F 87.3 °F 75.9 °F 85% 30.00 in 10.0 mi NE 6.9 mph - N/A   Clear